Location: Haliburton Scout Reserve
(45.0900°N, 78.3200°W)
Time: 16:43:21
(UTC-04:00)

LilacSat-2 - Pass Details

Date: 03 April 2023
Orbit: 499 x 515 km, 97.5° (Epoch: 28 May)

Event Time Altitude Azimuth Distance (km) Brightness Sun altitude
Rises 06:16:01 0° 30° (NNE) 2,604 ? -6.8°
Reaches altitude 10° 06:18:47 10° 53° (NE) 1,716 ? -6.3°
Maximum altitude 06:21:06 16° 92° (E) 1,388 ? -5.9°
Drops below altitude 10° 06:23:24 10° 131° (SE) 1,711 ? -5.5°
Sets 06:26:09 0° 154° (SSE) 2,593 ? -5.1°
